Regional Weather Roundup
Issued by NWS Sioux Falls, SD

Home | Current Version | Previous Version | Text Only | Print | Product List | Glossary Off
Versions: 1 2 3 4 5 6 7 8 9 10 11 12 13 14 15 16 17 18 19 20 21 22 23 24 25 26 27 28 29 30 31 32 33 34 35 36 37 38 39 40 41 42 43 44 45 46 47 48 49 50

000
ASUS43 KFSD 191710
RWRFSD

WEATHER ROUNDUP FOR SE SOUTH DAKOTA/SW MINNESOTA/NW IOWA
NATIONAL WEATHER SERVICE SIOUX FALLS SD
1200 PM CDT TUE SEP 19 2017

NOTE: "FAIR" INDICATES FEW OR NO CLOUDS BELOW 12,000 FEET WITH NO
SIGNIFICANT WEATHER AND OR OBSTRUCTIONS TO VISIBILITY.


SDZ038>040-050-052>070-191800-
SOUTHEAST SOUTH DAKOTA

CITY           SKY/WX    TMP DP  RH WIND       PRES   REMARKS
BROOKINGS      CLOUDY    66  65  96 S18G24    29.73F
CHAMBERLAIN    CLOUDY    72  68  87 SE20G30   29.55F
HURON          CLOUDY    71  65  81 SE21G30   29.60F
MADISON        CLOUDY    66  66 100 SE18G26   29.71F
MITCHELL       CLOUDY    74  66  76 SE24G33   29.63F
SIOUX FALLS    CLOUDY    70  67  90 SE20G25   29.72F FOG
WINNER         FAIR      76  66  71 S22G28    29.53F
YANKTON        PTSUNNY   75  68  78 SE20      29.67F
$$

MNZ071-072-080-081-089-090-097-098-191800-
SOUTHWEST MINNESOTA

CITY           SKY/WX    TMP DP  RH WIND       PRES   REMARKS
FAIRMONT       CLOUDY    71  65  81 SE18G26   29.85F
JACKSON        CLOUDY    68  63  83 SE17G24   29.84F
LUVERNE        CLOUDY    68  63  83 S16       29.76F
MARSHALL       CLOUDY    71  65  81 S16G28    29.76F
MONTEVIDEO     PTSUNNY   72  64  78 S18G28    29.75F
PIPESTONE      CLOUDY    70  66  88 S12G18    29.76F FOG
REDWOOD FALLS  CLOUDY    69  64  84 SE16G25   29.79F
TRACY          CLOUDY    71  67  87 SE16G28   29.78F
WINDOM         SUNNY     72  64  78 SE14G25   29.81F
WORTHINGTON    CLOUDY    68  65  90 SE14G23   29.81F
$$

IAZ001>003-012>014-020>022-031-032-NEZ013-014-SDZ071-191800-
NORTHWEST IOWA

CITY           SKY/WX    TMP DP  RH WIND       PRES   REMARKS
CHEROKEE       CLOUDY    71  68  90 SE12G18   29.81F
DENISON        PTSUNNY   75  70  83 S13       29.82F
ESTHERVILLE    CLOUDY    68  65  90 SE20G26   29.83F
LE MARS        CLOUDY    72  68  88 SE14G21   29.76F
ORANGE CITY    CLOUDY    72  68  88 S13       29.78F
SHELDON        CLOUDY    70  66  88 SE13G22   29.78F
SIOUX CITY     PTSUNNY   76  70  82 SE14G21   29.74F
SPENCER        CLOUDY    72  66  81 SE20G26   29.82S
STORM LAKE     SUNNY     68  66  94 SE16G22   29.82F
$$

ABBREVIATIONS USED IN REMARKS
   TC - TEMPERATURE IN CELSIUS
  WCI - WIND CHILL INDEX
   HX - HEAT INDEX
  VSB - VISIBILITY





USA.gov is the U.S. government's official web portal to all federal, state and local government web resources and services.